Location: ?ejeti?ky
(50.4060°N, 14.9016°E)
Time: 20:34:15
(UTC+00:00)

STARLINK-1329 - Visible Passes

Search period start: 25 September 2020 00:00
Search period end: 05 October 2020 00:00
Orbit: 549 x 550 km, 53.0° (Epoch: 25 September)

Date Brightness Start Highest point End Pass type
(mag) Time Alt. Az. Time Alt. Az. Time Alt. Az.
25 Sep 6.0 04:03:22 10° S 04:06:25 20° SE 04:09:28 10° E visible
26 Sep 5.6 03:57:22 10° SSW 04:00:47 25° SE 04:04:12 10° E visible
27 Sep 5.2 03:51:31 10° SSW 03:55:11 31° SE 03:58:52 10° E visible
28 Sep 4.8 03:45:45 10° SSW 03:49:37 39° SE 03:53:29 10° ENE visible
29 Sep 6.3 02:05:04 11° SE 02:05:17 11° SE 02:06:39 10° ESE visible
29 Sep 4.3 03:40:44 14° SW 03:44:05 48° SSE 03:48:05 10° ENE visible
30 Sep 6.1 02:00:08 15° SE 02:00:08 15° SE 02:02:02 10° E visible
30 Sep 4.0 03:35:48 19° SW 03:38:34 59° SSE 03:42:39 10° ENE visible
01 Oct 6.0 01:55:08 17° ESE 01:55:08 17° ESE 01:57:00 10° E visible
01 Oct 3.7 03:30:48 25° SW 03:33:05 71° SSE 03:37:14 10° ENE visible
02 Oct 5.9 01:50:05 19° ESE 01:50:05 19° ESE 01:51:49 10° E visible
02 Oct 3.6 03:25:45 31° WSW 03:27:38 83° SSE 03:31:48 10° ENE visible
03 Oct 6.0 01:45:00 19° E 01:45:00 19° E 01:46:32 10° E visible
03 Oct 3.5 03:20:39 38° WSW 03:22:12 86° NNW 03:26:23 10° ENE visible
04 Oct 6.1 01:39:53 19° E 01:39:53 19° E 01:41:14 10° ENE visible
04 Oct 3.6 03:15:32 43° W 03:16:48 76° NNW 03:20:58 10° ENE visible
